Georgetown, DE

1:20 PM EDT on July 22, 2017 (GMT -0400)
Sussex County

Weather History for KGED - January, 2014

Change the Weather History Date:

Sunday, January 5, 2014

  Actual Average Record
Temperature  
Mean Temperature 48 °F 35 °F  
Max Temperature 62 °F 44 °F 70 °F (1950)
Min Temperature 34 °F 27 °F 9 °F (1958)
Degree Days  
Heating Degree Days 17 30  
Month to date heating degree days 161 147  
Since 1 July heating degree days 1657 1729  
Cooling Degree Days 0 0  
Month to date cooling degree days 0 0  
Year to date cooling degree days 0 0  
Moisture  
Dew Point 44 °F    
Average Humidity 79    
Maximum Humidity 93    
Minimum Humidity 65    
Precipitation  
Precipitation 0.08 in 0.10 in 1.04 in (1972)
Month to date precipitation 0.83 0.46  
Year to date precipitation 0.83 0.46  
Sea Level Pressure  
Sea Level Pressure 30.06 in    
Wind  
Wind Speed 6 mph (SE)    
Max Wind Speed 21 mph    
Max Gust Speed 26 mph    
Visibility 9 miles    
Events Rain , Snow    
T = Trace of Precipitation, MM = Missing Value Source: NWS Daily Summary

Daily Weather History Graph

Daily Weather History Graph

Search for Another Location

Airport or City:

Trip Planner

Search our weather history database for the weather conditions in past years. The results will help you decide how hot, cold, wet, or windy it might be!

Date:

Astronomy

Jan. 05, 2014 Rise Set
Actual Time 7:19 AM EST 4:54 PM EST
Civil Twilight 6:50 AM EST 5:23 PM EST
Nautical Twilight 6:17 AM EST 5:56 PM EST
Astronomical Twilight 5:44 AM EST 6:29 PM EST
Moon 10:03 AM EST (1/5) 10:15 PM EST (1/5)
Length of Visible Light 10h 33m
Length of Day
9h 34m
Waxing Crescent, 24% of the Moon is Illuminated
Jan 5
Waxing Crescent
Jan 7
First Quarter
Jan 15
Full
Jan 24
Last Quarter
Jan 30
New

Hourly Weather History & Observations

Time (EST) Temp. Windchill Dew Point Humidity Pressure Visibility Wind Dir Wind Speed Gust Speed Precip Events Conditions
12:54 AM 35.1 °F 30.1 °F 28.0 °F 76% 30.30 in 10.0 mi South 5.8 mph - N/A   Overcast
1:54 AM 36.0 °F 31.1 °F 28.9 °F 76% 30.30 in 10.0 mi South 5.8 mph - N/A   Overcast
2:54 AM 36.0 °F - 28.9 °F 76% 30.30 in 10.0 mi Calm Calm - N/A   Overcast
3:54 AM 36.0 °F - 28.9 °F 76% 30.29 in 10.0 mi Calm Calm - N/A   Overcast
4:54 AM 35.1 °F - 30.0 °F 82% 30.28 in 10.0 mi Calm Calm - N/A   Overcast
5:54 AM 34.0 °F - 30.0 °F 85% 30.28 in 10.0 mi Calm Calm - N/A   Overcast
6:54 AM 34.0 °F - 30.9 °F 89% 30.28 in 10.0 mi Calm Calm - N/A   Overcast
7:54 AM 34.0 °F 29.8 °F 32.0 °F 92% 30.30 in 2.0 mi ESE 4.6 mph - 0.00 in Rain Light Rain
8:07 AM 35.1 °F 28.6 °F 30.9 °F 85% 30.28 in 6.0 mi East 8.1 mph - 0.00 in Snow Light Snow
8:54 AM 36.0 °F 33.3 °F 32.0 °F 86% 30.27 in 10.0 mi ESE 3.5 mph - 0.00 in   Overcast
9:54 AM 39.9 °F 37.8 °F 32.0 °F 73% 30.27 in 10.0 mi NE 3.5 mph - N/A   Overcast
10:54 AM 44.1 °F 42.5 °F 33.1 °F 65% 30.23 in 10.0 mi NE 3.5 mph - N/A   Overcast
11:54 AM 46.9 °F - 37.9 °F 71% 30.17 in 10.0 mi East 8.1 mph - N/A   Overcast
12:54 PM 48.9 °F - 39.9 °F 71% 30.14 in 10.0 mi East 6.9 mph - N/A   Overcast
1:54 PM 52.0 °F - 43.0 °F 71% 30.12 in 10.0 mi East 5.8 mph - N/A   Overcast
2:54 PM 53.1 °F - 45.0 °F 74% 30.09 in 10.0 mi East 5.8 mph - N/A   Overcast
3:54 PM 52.0 °F - 46.0 °F 80% 30.06 in 10.0 mi ESE 5.8 mph - N/A   Overcast
4:54 PM 52.0 °F - 48.0 °F 86% 30.03 in 10.0 mi SSE 8.1 mph - N/A   Overcast
5:54 PM 54.0 °F - 52.0 °F 93% 30.01 in 10.0 mi SSE 6.9 mph - N/A   Overcast
6:54 PM 55.0 °F - 52.0 °F 89% 29.97 in 10.0 mi SE 6.9 mph - N/A   Overcast
7:54 PM 55.0 °F - 52.0 °F 89% 29.94 in 10.0 mi SE 10.4 mph - N/A   Overcast
8:54 PM 57.0 °F - 53.1 °F 87% 29.90 in 10.0 mi SSE 6.9 mph - N/A   Overcast
9:02 PM 57.0 °F - 54.0 °F 89% 29.89 in 10.0 mi South 10.4 mph - N/A   Overcast
9:21 PM 59.0 °F - 55.0 °F 87% 29.88 in 7.0 mi South 12.7 mph - 0.00 in Rain Light Rain
9:33 PM 57.9 °F - 55.0 °F 90% 29.87 in 8.0 mi South 12.7 mph - 0.01 in Rain Light Rain
9:45 PM 57.9 °F - 55.0 °F 90% 29.86 in 8.0 mi South 12.7 mph 21.9 mph 0.01 in Rain Light Rain
9:54 PM 57.9 °F - 55.0 °F 90% 29.86 in 8.0 mi South 15.0 mph - 0.01 in Rain Light Rain
10:01 PM 57.9 °F - 55.9 °F 93% 29.85 in 2.5 mi South 11.5 mph 20.7 mph 0.04 in Rain Heavy Rain
10:15 PM 57.9 °F - 55.9 °F 93% 29.84 in 5.0 mi South 9.2 mph - 0.06 in Rain Light Rain
10:54 PM 59.0 °F - 57.0 °F 93% 29.81 in 6.0 mi South 13.8 mph 23.0 mph 0.07 in Rain Light Rain
11:14 PM 60.1 °F - 57.9 °F 93% 29.79 in 10.0 mi South 15.0 mph - 0.00 in   Overcast
11:31 PM 61.0 °F - 57.9 °F 90% 29.78 in 10.0 mi South 15.0 mph - 0.00 in   Overcast
11:54 PM 61.0 °F - 57.9 °F 90% 29.77 in 10.0 mi South 18.4 mph 24.2 mph 0.00 in   Overcast